SCP
0 0 0 0 0 0 0 0 0 0 0 0 0 0 -0 0 0 0 0 0 -0 -0 -0 -0 -0 -0 -0 -0 -0 -0 -0 -0 -0 -0 -0 -0 -0 -0 -0 -0 -0 -0 -0 -0 -0 -0 -0 -0 -0
0 0 0 0 0 0 0 0 0 0 0 0 0 0 0 0 0 0 0 0 -0 -0 -0 -0 -0 -0 -0 -0 -0 -0 -0 -0 -0 -0 -0 -0 -0 -0 -0 -0 -0 -0 -0 -0 -0 -0 -0 -0 -0
0 0 0 0 0 0 0 0 0 0 0 0 0 0 0 0 0 -0 0 0 -0 -0 -0 -0 -0 -0 -0 -0 -0 -0 -0 -0 -0 -0 -0 -0 -0 -0 -0 -0 -0 -0 -0 -0 -0 -0 -0 -0 -0
0 0 0 0 0 0 0 0 0 0 0 0 0 0 0 0 0 0 -0 -0 0 0 -0 -0 -0 -0 -0 -0 -0 -0 -0 -0 -0 -0 -0 -0 -0 0 0 0 0 0 0 0 0 0 0 0 0
0 0 0 0 0 0 0 0 0 0 0 0 0 0 0 0 0 0 -0 -0 0 0 0 0 -0 -0 -0 -0 -0 -0 -0 -0 -0 -0 -0 -0 -0 0 0 0 0 0 0 0 0 0 0 0 0
0 0 0 0 0 0 0 0 0 0 0 0 0 0 0 0 0 0 0 0 0 0 0 0 0 0 0 -0 0 0 0 -0 -0 -0 0 0 0 0 0 0 0 0 0 0 0 0 0 0 0
0 0 0 0 0 0 0 0 0 0 0 0 0 0 0 0 0 0 0 0 0 0 0 0 0 0 0 0 0 0 0 0 0 0 0 0 0 0 0 0 0 0 0 0 0 0 0 0 0
0 0 0 0 0 -0 0 0 0 0 0 0 0 0 0 0 0 0 0 0 0 0 0 0 0 0 0 0 0 0 0 0 0 0 0 0 0 0 0 0 0 0 0 0 0 0 0 0 0
0 0 0 0 0 0 0 0 0 0 0 0 0 0 0 0 0 0 0 0 0 0 0 0 0 0 0 0 0 0 0 0 0 0 0 0 0 0 0 0 0 0 0 0 0 0 0 0 0
0 0 0 0 0 0 0 0 0 0 0 0 0 0 0 0 0 0 0 0 0 0 0 0 0 0 0 0 0 0 0 0 0 0 0 0 0 0 0 0 0 0 0 0 0 0 0 0 0
0 0 0 0 0 0 0 0 0 0 0 0 0 0 0 0 0 0 0 0 0 0 0 0 0 0 0 0 0 0 0 0 0 0 0 0 0 0 0 0 0 0 0 0 0 0 0 0 0
0 0 0 0 0 0 0 0 0 0 0 0 0 0 0 0 0 0 0 0 0 0 0 0 0 0 0 0 0 0 0 0 0 0 0 0 0 0 0 0 0 0 0 0 0 0 0 0 0
0 0 0 0 0 0 0 0 0 0 0 0 0 0 0 0 0 0 0 0 0 0 0 0 0 0 0 0 0 0 0 0 0 0 0 0 0 0 0 0 0 0 0 0 0 0 0 0 0
0 0 0 0 0 0 0 0 0 0 0 0 0 0 0 0 0 0 0 0 0 0 0 0 0 0 0 0 0 0 0 0 0 0 0 0 0 0 0 0 0 0 0 0 0 0 0 0 0
0 -0 -0 -0 0 0 0 0 0 0 0 0 0 0 0 0 0 0 0 0 0 0 0 0 0 0 0 0 0 0 0 0 0 0 0 0 0 0 0 0 0 0 0 0 0 0 0 0 0
0 -0 -0 0 0 0 0 0 0 0 0 0 0 0 0 0 0 0 0 0 0 0 0 0 0 0 0 0 0 0 0 0 0 0 0 0 0 0 0 0 0 0 0 0 0 0 0 0 0
0 -0 0 -0 -0 0 0 -0 -0 0 -0 0 0 0 0 0 0 0 0 0 0 0 0 0 0 0 0 0 0 0 0 0 0 0 0 0 0 0 0 0 0 0 0 0 0 0 0 0 0
0 0 0 -0 0 0 0 0 0 0 0 0 0 0 0 0 0 0 0 0 0 0 0 0 0 0 0 0 0 0 0 0 0 0 0 0 0 0 0 0 0 0 0 0 0 0 0 0 0
0 0 0 0 0 0 0 0 0 0 0 0 0 0 0 0 0 0 0 0 0 0 0 0 0 0 0 0 0 0 0 0 0 0 0 0 0 0 0 0 0 0 0 0 0 0 0 0 0
0 0 0 -0 0 0 -0 -0 0 0 0 0 0 0 0 0 0 0 0 0 0 0 0 0 0 0 0 0 0 0 0 0 0 0 0 0 0 0 0 0 0 0 0 0 0 0 0 0 0
0 0 -0 -0 0 0 -0 -0 -0 -0 0 0 0 0 0 0 0 0 0 0 0 0 0 0 0 0 0 0 0 0 0 0 0 0 0 0 0 0 0 0 0 0 0 0 0 0 0 0 0
0 -0 -0 -0 -0 -0 0 -0 -0 -0 -0 -0 0 0 0 0 0 0 0 0 0 0 0 0 0 0 0 0 0 0 0 0 0 0 0 0 0 0 0 0 0 0 0 0 0 0 0 0 0
-0 0 0 0 0 -0 -0 0 -0 -0 -0 -0 0 0 0 0 0 0 0 0 0 0 0 0 0 0 0 0 0 0 0 0 0 0 0 0 0 0 0 0 0 0 0 0 0 0 0 0 0
0 0 0 -0 -0 0 0 0 -0 -0 -0 -0 0 0 0 0 0 0 0 0 0 0 0 0 0 0 0 0 0 0 0 0 0 0 0 0 0 0 0 0 0 0 0 0 0 0 0 0 0
0 0 -0 -0 -0 -0 0 0 0 0 0 -0 0 0 0 0 0 0 0 0 0 0 0 0 0 0 0 0 0 0 0 0 0 0 0 0 0 0 0 0 0 0 0 0 0 0 0 0 0
0 0 0 0 0 0 -0 0 0 0 0 0 0 0 0 0 0 0 0 0 0 0 0 0 0 0 0 0 0 0 0 0 0 0 0 0 0 0 0 0 0 0 0 0 0 0 0 0 0
0 0 0 0 0 0 -0 0 0 0 0 0 0 0 0 0 0 0 0 0 0 0 0 0 0 0 0 0 0 0 0 0 0 0 0 0 0 0 0 0 0 0 0 0 0 0 0 0 0
0 0 0 0 0 0 0 0 0 0 0 0 0 0 0 0 0 0 0 0 0 0 0 0 0 0 0 0 0 0 0 0 0 0 0 0 0 0 0 0 0 0 0 0 0 0 0 0 0
0 0 0 0 0 0 0 0 0 0 0 -0 0 0 0 0 0 0 0 0 0 0 0 0 0 0 0 0 0 0 0 0 0 0 0 0 0 0 0 0 0 0 0 0 0 0 0 0 0
0 0 0 0 0 0 0 0 0 -0 0 0 -0 0 0 0 0 0 0 0 0 0 0 0 0 0 0 0 0 0 0 0 0 0 0 0 0 0 0 0 0 0 0 0 0 0 0 0 0
Wind_Speed_500mb
20 15 8 5 5 8 7 13 6 10 6 4 14 12 20 9 10 8 24 47 53 69 68 62 58 52 47 45 43 40 36 32 27 21 14 10 8 7 6 8 13 16 19 22 21 15 12 9 8
17 6 9 6 8 2 10 9 17 14 4 19 16 16 8 5 7 10 49 45 54 67 69 63 59 54 49 47 44 41 37 33 28 19 13 10 8 9 10 18 24 25 26 28 29 27 17 11 8
11 9 8 7 7 12 10 10 13 11 22 6 6 4 8 7 16 38 33 49 60 67 67 64 59 54 50 48 45 41 38 35 27 19 13 9 9 12 15 21 24 26 26 26 25 25 25 22 17
4 8 7 6 15 13 13 7 5 2 14 14 9 5 8 11 17 43 48 55 62 67 66 63 60 56 52 49 46 43 38 33 28 21 16 13 13 15 18 20 21 21 21 21 20 19 18 16 16
8 4 4 4 13 11 11 20 22 9 5 9 17 9 5 12 31 32 48 55 62 66 66 63 60 56 53 50 47 44 39 34 25 20 17 15 16 18 18 18 16 15 16 16 17 17 16 15 12
2 4 4 10 12 10 14 38 5 9 10 6 7 21 13 25 22 35 45 52 57 66 66 63 60 57 53 51 48 45 42 36 27 22 18 16 17 17 17 15 13 12 12 12 12 12 12 12 11
6 7 8 6 9 11 11 21 14 16 12 14 9 15 9 35 29 37 46 49 55 61 67 64 61 58 55 52 49 47 43 37 30 26 21 18 16 17 16 13 12 9 8 7 7 7 7 8 7
4 6 4 9 6 15 7 6 8 30 24 13 23 12 10 48 40 42 47 48 51 60 64 66 63 59 59 55 51 48 43 38 33 28 24 21 18 17 17 14 12 8 6 4 2 4 8 12 15
5 3 8 9 9 11 15 9 4 7 11 18 22 8 12 46 49 51 53 51 52 61 66 65 63 61 60 58 53 49 45 40 36 32 28 24 21 19 18 15 13 10 8 5 4 5 13 20 23
8 6 14 12 7 9 15 7 15 6 6 13 18 19 16 49 57 62 64 63 62 69 71 68 66 63 62 59 55 53 49 46 41 36 32 28 25 23 21 18 18 18 15 11 11 13 23 27 28
11 12 8 12 19 17 9 13 8 8 9 15 26 35 30 54 61 64 63 63 66 69 73 70 67 65 62 62 59 56 55 50 45 39 35 31 30 28 25 21 21 24 21 16 14 22 29 32 30
7 27 23 13 10 11 8 14 13 12 16 8 15 27 43 59 67 68 66 66 64 68 70 70 69 68 67 65 63 61 58 53 48 43 38 35 33 30 27 26 31 30 24 20 25 32 35 33 31
8 9 27 28 30 26 28 26 16 34 40 31 30 25 49 60 67 68 65 62 64 67 70 71 72 71 70 68 66 63 58 54 48 45 41 37 34 31 31 32 37 32 27 28 30 34 34 33 25
18 24 31 22 25 21 10 12 5 32 44 41 35 29 49 66 69 69 71 68 67 67 70 70 72 70 72 69 68 65 60 53 48 47 43 40 36 34 35 34 27 29 28 30 32 36 36 26 26
18 14 15 13 18 13 8 16 17 73 61 58 38 43 48 68 69 73 71 70 70 69 67 71 67 65 64 65 66 64 58 51 49 48 46 43 40 37 35 31 31 33 33 33 35 37 30 27 31
9 5 8 8 3 9 15 34 13 37 31 44 57 51 52 61 73 76 72 72 72 69 69 68 68 65 59 64 64 61 55 52 49 42 41 45 42 40 40 39 39 37 36 37 35 30 28 32 32
7 10 12 15 2 6 11 9 9 14 13 35 51 49 57 63 71 79 78 79 77 72 74 71 70 69 61 59 63 59 55 54 53 53 49 45 42 42 39 37 37 37 38 36 32 30 30 32 29
12 12 11 9 15 15 25 25 27 51 35 32 38 41 43 56 76 75 86 83 81 80 80 76 74 73 71 67 65 65 64 63 61 58 59 53 48 44 40 38 38 39 38 35 33 32 31 28 23
14 16 25 23 25 27 35 47 31 40 43 32 50 68 74 62 54 67 78 82 90 83 83 85 85 82 86 81 78 77 74 72 68 66 62 48 49 45 41 40 40 39 37 35 34 32 29 26 23
7 14 14 16 10 13 21 50 34 33 44 51 50 60 75 75 75 66 64 74 85 92 89 87 90 92 91 83 82 80 78 77 74 70 73 52 51 46 43 42 40 39 36 35 33 30 27 26 23
12 9 7 14 20 15 17 41 19 16 43 46 57 72 77 82 81 77 67 69 76 87 95 94 93 93 90 93 94 90 84 78 77 71 65 67 56 50 45 44 41 38 36 34 31 29 26 26 26
12 7 6 9 9 6 10 24 7 2 17 10 32 49 61 65 73 81 78 68 72 84 87 90 93 96 98 103 100 95 87 88 86 72 67 65 57 48 46 43 40 38 35 33 30 28 26 24 24
11 18 12 8 11 4 10 9 4 12 28 24 34 59 58 56 55 65 72 84 85 79 80 98 99 95 97 103 109 96 93 87 80 77 76 67 60 49 45 43 39 37 34 32 29 27 24 21 21
22 22 30 9 10 16 18 16 25 10 12 30 48 67 68 70 65 57 50 52 73 74 79 92 99 97 97 96 106 105 98 87 83 81 78 67 56 51 47 43 39 37 34 31 28 25 22 19 18
45 18 9 7 5 10 6 8 24 24 23 23 30 57 67 73 75 71 57 48 48 61 70 87 94 97 94 96 102 105 100 91 82 74 78 67 69 53 52 43 39 37 34 30 26 23 20 18 16
21 6 5 15 9 22 11 9 5 8 26 40 47 54 70 92 87 79 66 46 43 45 58 79 91 92 90 94 98 104 96 93 88 83 75 67 62 52 45 41 40 38 33 29 25 21 18 16 14
17 8 24 15 24 19 9 10 11 29 38 58 63 66 77 81 88 84 74 57 43 38 46 65 84 89 87 90 90 91 89 90 86 80 75 61 57 48 43 42 39 37 33 28 25 22 18 16 13
18 19 11 9 11 9 9 8 5 36 41 38 43 61 70 84 90 88 80 67 51 36 35 48 70 79 83 88 89 90 85 86 80 74 69 58 57 51 49 44 40 36 31 27 23 20 17 14 12
12 10 11 9 9 9 11 6 24 35 34 34 39 56 60 71 78 84 83 77 61 45 30 31 49 63 71 75 79 81 80 73 70 68 65 59 60 50 47 43 39 34 30 27 23 19 16 13 10
17 6 9 6 15 14 11 11 26 42 47 52 54 62 54 66 67 73 73 77 77 58 38 23 28 41 52 61 72 70 68 68 69 68 61 63 55 49 46 42 39 34 29 26 22 18 14 11 10
Wind_Direction_500mb
299 290 239 186 57 66 257 257 276 292 252 207 131 156 179 155 168 209 154 166 172 171 171 171 172 173 173 172 170 169 167 164 161 158 154 149 140 124 108 126 109 99 89 80 80 109 120 118 127
301 267 172 133 109 181 263 245 242 230 279 123 117 117 134 177 186 170 151 163 173 173 172 172 175 175 175 174 172 172 171 170 169 165 162 151 131 110 97 106 98 93 85 81 79 84 97 107 118
296 175 149 135 164 194 225 221 263 259 194 145 109 116 158 191 191 168 164 163 170 175 175 175 176 178 178 177 175 175 176 173 173 172 166 157 140 123 111 106 102 97 92 88 85 85 84 83 78
178 147 86 114 230 255 217 245 228 292 203 247 180 161 170 175 182 166 165 164 170 176 177 179 179 181 181 180 179 179 180 178 176 174 171 169 157 142 131 123 113 105 98 93 89 87 82 75 74
176 133 85 245 253 258 259 256 272 230 241 216 184 195 187 173 165 174 170 169 172 177 178 181 182 184 183 183 183 184 183 183 182 180 177 173 162 153 143 136 123 109 100 92 85 81 76 68 64
172 83 93 236 248 269 265 251 231 230 235 199 204 153 161 170 177 170 174 174 176 179 181 183 185 186 187 187 187 188 186 187 188 188 186 176 163 159 154 150 140 130 113 101 92 82 72 63 58
135 103 219 254 264 286 252 241 198 220 223 227 197 150 191 175 172 178 180 178 181 185 184 186 188 187 190 191 191 191 190 191 194 192 189 181 168 165 167 161 156 145 129 111 85 66 51 36 19
238 103 260 236 241 269 280 249 278 214 230 218 183 187 204 187 178 180 181 182 186 189 189 190 191 191 190 193 194 194 195 197 198 197 192 186 181 175 173 170 170 169 160 141 86 44 3 346 330
193 34 244 250 175 253 330 344 277 245 197 183 199 229 213 188 182 178 178 185 190 192 193 194 194 193 191 194 195 197 198 201 202 200 195 194 191 187 183 182 186 188 197 205 224 286 322 322 315
176 184 233 213 208 255 301 299 317 300 217 215 207 217 222 185 185 182 183 187 192 193 196 198 198 197 194 195 196 199 201 201 207 204 200 199 197 196 196 201 206 197 201 223 268 303 315 311 310
189 224 215 263 270 276 275 299 295 304 261 228 216 208 207 188 190 193 194 196 196 197 198 200 201 201 198 199 200 202 202 205 208 208 207 204 203 206 210 214 215 212 218 235 268 295 307 307 306
214 253 250 269 284 305 279 305 299 234 251 312 288 230 212 197 197 200 202 202 198 200 202 203 204 203 203 204 202 205 205 208 210 211 210 210 211 214 219 226 220 221 236 253 281 290 297 298 298
246 299 274 273 277 281 275 265 257 277 271 278 280 237 219 212 210 209 209 208 205 203 204 205 206 205 206 207 206 208 211 213 214 214 214 215 218 221 230 233 229 221 244 259 273 284 288 292 285
320 295 287 289 278 269 259 268 170 271 275 272 253 250 224 218 218 212 212 212 213 210 208 208 207 207 210 211 210 212 213 215 215 218 218 219 221 227 233 238 227 232 246 263 274 280 284 277 280
295 307 304 247 241 237 226 277 220 261 260 265 264 238 229 221 221 222 222 220 218 217 214 212 212 211 213 219 216 216 217 217 217 220 222 223 223 230 235 227 244 250 256 263 273 278 276 276 286
328 280 331 300 110 284 186 262 284 290 250 252 258 249 234 228 226 227 228 229 227 223 219 216 214 214 216 221 221 219 219 218 218 224 228 231 230 226 222 228 239 250 256 266 269 265 268 281 288
337 263 272 319 273 308 204 283 278 342 282 258 266 266 256 242 233 231 233 234 233 230 225 221 218 217 218 216 216 219 216 213 216 222 225 227 228 225 224 234 244 251 259 262 259 261 268 278 282
331 321 319 301 329 343 303 279 282 287 287 269 284 284 271 258 248 240 236 236 236 233 230 226 222 219 219 218 217 216 216 217 217 223 224 221 220 222 229 238 246 253 258 259 259 262 270 273 273
289 282 287 292 285 285 276 279 275 282 283 275 271 275 275 273 275 258 243 238 236 235 232 228 224 222 220 220 217 216 218 218 221 223 225 219 215 226 229 239 247 252 256 256 258 263 267 269 276
270 287 289 276 321 300 296 284 272 275 271 266 265 271 277 279 276 271 251 238 232 231 230 228 226 227 225 225 223 220 219 220 219 222 227 209 218 223 231 239 245 250 251 253 259 262 263 267 271
287 237 278 289 329 261 283 281 267 239 251 263 257 262 270 270 271 270 261 242 233 229 228 228 227 228 229 229 222 219 219 218 214 212 225 212 213 220 232 238 243 246 246 251 254 257 258 264 271
322 284 272 276 357 277 33 291 113 237 264 301 286 278 277 278 275 267 266 252 239 234 232 232 231 230 229 227 226 228 221 219 217 222 221 211 215 220 230 237 241 243 246 248 247 251 256 262 265
299 329 292 236 252 285 206 254 310 10 310 323 355 349 348 340 319 301 286 272 257 249 241 233 231 230 229 225 225 229 223 222 225 222 213 209 213 217 227 233 239 240 243 244 245 249 253 258 260
349 324 297 257 225 257 238 191 284 50 357 354 352 348 348 346 340 329 305 293 277 265 246 234 231 229 228 225 224 223 223 223 220 215 218 210 216 217 229 229 235 238 237 239 245 249 253 253 253
357 355 331 327 205 234 37 277 268 33 22 8 349 354 352 357 353 347 334 306 294 274 255 235 230 228 226 224 221 220 223 222 223 220 216 217 215 218 224 225 232 233 233 236 241 247 251 251 254
314 29 291 299 333 302 341 224 317 19 7 4 12 356 1 2 0 355 349 333 305 280 264 240 227 225 223 221 219 218 224 221 217 218 214 218 216 221 215 223 224 226 228 233 236 239 242 251 259
311 1 317 273 260 261 228 256 194 24 14 5 359 3 359 358 357 1 355 351 334 299 268 246 230 224 221 219 217 219 222 220 218 218 212 213 214 211 212 218 219 223 224 224 227 232 238 243 254
343 279 328 309 288 277 305 300 12 16 7 356 348 350 348 356 360 7 3 356 348 327 288 256 235 226 219 217 215 218 219 222 218 218 208 206 211 209 215 214 214 216 217 220 224 228 232 240 250
349 30 347 318 344 313 346 299 40 17 358 340 340 341 341 350 359 5 12 8 357 345 318 269 242 230 225 220 218 218 219 220 216 212 208 213 207 207 208 210 211 212 214 216 217 218 221 232 248
70 45 43 0 326 293 262 248 28 17 349 347 351 344 351 358 358 358 4 5 6 355 337 292 251 235 227 223 219 218 215 215 211 210 207 203 205 205 206 205 206 207 206 206 207 211 216 228 244
Wind_Speed_850mb
20 15 8 5 5 8 7 13 6 10 6 4 14 12 20 9 10 8 24 47 53 69 68 62 58 52 47 45 43 40 36 32 27 21 14 10 8 7 6 8 13 16 19 22 21 15 12 9 8
17 6 9 6 8 2 10 9 17 14 4 19 16 16 8 5 7 10 49 45 54 67 69 63 59 54 49 47 44 41 37 33 28 19 13 10 8 9 10 18 24 25 26 28 29 27 17 11 8
11 9 8 7 7 12 10 10 13 11 22 6 6 4 8 7 16 38 33 49 60 67 67 64 59 54 50 48 45 41 38 35 27 19 13 9 9 12 15 21 24 26 26 26 25 25 25 22 17
4 8 7 6 15 13 13 7 5 2 14 14 9 5 8 11 17 43 48 55 62 67 66 63 60 56 52 49 46 43 38 33 28 21 16 13 13 15 18 20 21 21 21 21 20 19 18 16 16
8 4 4 4 13 11 11 20 22 9 5 9 17 9 5 12 31 32 48 55 62 66 66 63 60 56 53 50 47 44 39 34 25 20 17 15 16 18 18 18 16 15 16 16 17 17 16 15 12
2 4 4 10 12 10 14 38 5 9 10 6 7 21 13 25 22 35 45 52 57 66 66 63 60 57 53 51 48 45 42 36 27 22 18 16 17 17 17 15 13 12 12 12 12 12 12 12 11
6 7 8 6 9 11 11 21 14 16 12 14 9 15 9 35 29 37 46 49 55 61 67 64 61 58 55 52 49 47 43 37 30 26 21 18 16 17 16 13 12 9 8 7 7 7 7 8 7
4 6 4 9 6 15 7 6 8 30 24 13 23 12 10 48 40 42 47 48 51 60 64 66 63 59 59 55 51 48 43 38 33 28 24 21 18 17 17 14 12 8 6 4 2 4 8 12 15
5 3 8 9 9 11 15 9 4 7 11 18 22 8 12 46 49 51 53 51 52 61 66 65 63 61 60 58 53 49 45 40 36 32 28 24 21 19 18 15 13 10 8 5 4 5 13 20 23
8 6 14 12 7 9 15 7 15 6 6 13 18 19 16 49 57 62 64 63 62 69 71 68 66 63 62 59 55 53 49 46 41 36 32 28 25 23 21 18 18 18 15 11 11 13 23 27 28
11 12 8 12 19 17 9 13 8 8 9 15 26 35 30 54 61 64 63 63 66 69 73 70 67 65 62 62 59 56 55 50 45 39 35 31 30 28 25 21 21 24 21 16 14 22 29 32 30
7 27 23 13 10 11 8 14 13 12 16 8 15 27 43 59 67 68 66 66 64 68 70 70 69 68 67 65 63 61 58 53 48 43 38 35 33 30 27 26 31 30 24 20 25 32 35 33 31
8 9 27 28 30 26 28 26 16 34 40 31 30 25 49 60 67 68 65 62 64 67 70 71 72 71 70 68 66 63 58 54 48 45 41 37 34 31 31 32 37 32 27 28 30 34 34 33 25
18 24 31 22 25 21 10 12 5 32 44 41 35 29 49 66 69 69 71 68 67 67 70 70 72 70 72 69 68 65 60 53 48 47 43 40 36 34 35 34 27 29 28 30 32 36 36 26 26
18 14 15 13 18 13 8 16 17 73 61 58 38 43 48 68 69 73 71 70 70 69 67 71 67 65 64 65 66 64 58 51 49 48 46 43 40 37 35 31 31 33 33 33 35 37 30 27 31
9 5 8 8 3 9 15 34 13 37 31 44 57 51 52 61 73 76 72 72 72 69 69 68 68 65 59 64 64 61 55 52 49 42 41 45 42 40 40 39 39 37 36 37 35 30 28 32 32
7 10 12 15 2 6 11 9 9 14 13 35 51 49 57 63 71 79 78 79 77 72 74 71 70 69 61 59 63 59 55 54 53 53 49 45 42 42 39 37 37 37 38 36 32 30 30 32 29
12 12 11 9 15 15 25 25 27 51 35 32 38 41 43 56 76 75 86 83 81 80 80 76 74 73 71 67 65 65 64 63 61 58 59 53 48 44 40 38 38 39 38 35 33 32 31 28 23
14 16 25 23 25 27 35 47 31 40 43 32 50 68 74 62 54 67 78 82 90 83 83 85 85 82 86 81 78 77 74 72 68 66 62 48 49 45 41 40 40 39 37 35 34 32 29 26 23
7 14 14 16 10 13 21 50 34 33 44 51 50 60 75 75 75 66 64 74 85 92 89 87 90 92 91 83 82 80 78 77 74 70 73 52 51 46 43 42 40 39 36 35 33 30 27 26 23
12 9 7 14 20 15 17 41 19 16 43 46 57 72 77 82 81 77 67 69 76 87 95 94 93 93 90 93 94 90 84 78 77 71 65 67 56 50 45 44 41 38 36 34 31 29 26 26 26
12 7 6 9 9 6 10 24 7 2 17 10 32 49 61 65 73 81 78 68 72 84 87 90 93 96 98 103 100 95 87 88 86 72 67 65 57 48 46 43 40 38 35 33 30 28 26 24 24
11 18 12 8 11 4 10 9 4 12 28 24 34 59 58 56 55 65 72 84 85 79 80 98 99 95 97 103 109 96 93 87 80 77 76 67 60 49 45 43 39 37 34 32 29 27 24 21 21
22 22 30 9 10 16 18 16 25 10 12 30 48 67 68 70 65 57 50 52 73 74 79 92 99 97 97 96 106 105 98 87 83 81 78 67 56 51 47 43 39 37 34 31 28 25 22 19 18
45 18 9 7 5 10 6 8 24 24 23 23 30 57 67 73 75 71 57 48 48 61 70 87 94 97 94 96 102 105 100 91 82 74 78 67 69 53 52 43 39 37 34 30 26 23 20 18 16
21 6 5 15 9 22 11 9 5 8 26 40 47 54 70 92 87 79 66 46 43 45 58 79 91 92 90 94 98 104 96 93 88 83 75 67 62 52 45 41 40 38 33 29 25 21 18 16 14
17 8 24 15 24 19 9 10 11 29 38 58 63 66 77 81 88 84 74 57 43 38 46 65 84 89 87 90 90 91 89 90 86 80 75 61 57 48 43 42 39 37 33 28 25 22 18 16 13
18 19 11 9 11 9 9 8 5 36 41 38 43 61 70 84 90 88 80 67 51 36 35 48 70 79 83 88 89 90 85 86 80 74 69 58 57 51 49 44 40 36 31 27 23 20 17 14 12
12 10 11 9 9 9 11 6 24 35 34 34 39 56 60 71 78 84 83 77 61 45 30 31 49 63 71 75 79 81 80 73 70 68 65 59 60 50 47 43 39 34 30 27 23 19 16 13 10
17 6 9 6 15 14 11 11 26 42 47 52 54 62 54 66 67 73 73 77 77 58 38 23 28 41 52 61 72 70 68 68 69 68 61 63 55 49 46 42 39 34 29 26 22 18 14 11 10
Wind_Direction_850mb
299 290 239 186 57 66 257 257 276 292 252 207 131 156 179 155 168 209 154 166 172 171 171 171 172 173 173 172 170 169 167 164 161 158 154 149 140 124 108 126 109 99 89 80 80 109 120 118 127
301 267 172 133 109 181 263 245 242 230 279 123 117 117 134 177 186 170 151 163 173 173 172 172 175 175 175 174 172 172 171 170 169 165 162 151 131 110 97 106 98 93 85 81 79 84 97 107 118
296 175 149 135 164 194 225 221 263 259 194 145 109 116 158 191 191 168 164 163 170 175 175 175 176 178 178 177 175 175 176 173 173 172 166 157 140 123 111 106 102 97 92 88 85 85 84 83 78
178 147 86 114 230 255 217 245 228 292 203 247 180 161 170 175 182 166 165 164 170 176 177 179 179 181 181 180 179 179 180 178 176 174 171 169 157 142 131 123 113 105 98 93 89 87 82 75 74
176 133 85 245 253 258 259 256 272 230 241 216 184 195 187 173 165 174 170 169 172 177 178 181 182 184 183 183 183 184 183 183 182 180 177 173 162 153 143 136 123 109 100 92 85 81 76 68 64
172 83 93 236 248 269 265 251 231 230 235 199 204 153 161 170 177 170 174 174 176 179 181 183 185 186 187 187 187 188 186 187 188 188 186 176 163 159 154 150 140 130 113 101 92 82 72 63 58
135 103 219 254 264 286 252 241 198 220 223 227 197 150 191 175 172 178 180 178 181 185 184 186 188 187 190 191 191 191 190 191 194 192 189 181 168 165 167 161 156 145 129 111 85 66 51 36 19
238 103 260 236 241 269 280 249 278 214 230 218 183 187 204 187 178 180 181 182 186 189 189 190 191 191 190 193 194 194 195 197 198 197 192 186 181 175 173 170 170 169 160 141 86 44 3 346 330
193 34 244 250 175 253 330 344 277 245 197 183 199 229 213 188 182 178 178 185 190 192 193 194 194 193 191 194 195 197 198 201 202 200 195 194 191 187 183 182 186 188 197 205 224 286 322 322 315
176 184 233 213 208 255 301 299 317 300 217 215 207 217 222 185 185 182 183 187 192 193 196 198 198 197 194 195 196 199 201 201 207 204 200 199 197 196 196 201 206 197 201 223 268 303 315 311 310
189 224 215 263 270 276 275 299 295 304 261 228 216 208 207 188 190 193 194 196 196 197 198 200 201 201 198 199 200 202 202 205 208 208 207 204 203 206 210 214 215 212 218 235 268 295 307 307 306
214 253 250 269 284 305 279 305 299 234 251 312 288 230 212 197 197 200 202 202 198 200 202 203 204 203 203 204 202 205 205 208 210 211 210 210 211 214 219 226 220 221 236 253 281 290 297 298 298
246 299 274 273 277 281 275 265 257 277 271 278 280 237 219 212 210 209 209 208 205 203 204 205 206 205 206 207 206 208 211 213 214 214 214 215 218 221 230 233 229 221 244 259 273 284 288 292 285
320 295 287 289 278 269 259 268 170 271 275 272 253 250 224 218 218 212 212 212 213 210 208 208 207 207 210 211 210 212 213 215 215 218 218 219 221 227 233 238 227 232 246 263 274 280 284 277 280
295 307 304 247 241 237 226 277 220 261 260 265 264 238 229 221 221 222 222 220 218 217 214 212 212 211 213 219 216 216 217 217 217 220 222 223 223 230 235 227 244 250 256 263 273 278 276 276 286
328 280 331 300 110 284 186 262 284 290 250 252 258 249 234 228 226 227 228 229 227 223 219 216 214 214 216 221 221 219 219 218 218 224 228 231 230 226 222 228 239 250 256 266 269 265 268 281 288
337 263 272 319 273 308 204 283 278 342 282 258 266 266 256 242 233 231 233 234 233 230 225 221 218 217 218 216 216 219 216 213 216 222 225 227 228 225 224 234 244 251 259 262 259 261 268 278 282
331 321 319 301 329 343 303 279 282 287 287 269 284 284 271 258 248 240 236 236 236 233 230 226 222 219 219 218 217 216 216 217 217 223 224 221 220 222 229 238 246 253 258 259 259 262 270 273 273
289 282 287 292 285 285 276 279 275 282 283 275 271 275 275 273 275 258 243 238 236 235 232 228 224 222 220 220 217 216 218 218 221 223 225 219 215 226 229 239 247 252 256 256 258 263 267 269 276
270 287 289 276 321 300 296 284 272 275 271 266 265 271 277 279 276 271 251 238 232 231 230 228 226 227 225 225 223 220 219 220 219 222 227 209 218 223 231 239 245 250 251 253 259 262 263 267 271
287 237 278 289 329 261 283 281 267 239 251 263 257 262 270 270 271 270 261 242 233 229 228 228 227 228 229 229 222 219 219 218 214 212 225 212 213 220 232 238 243 246 246 251 254 257 258 264 271
322 284 272 276 357 277 33 291 113 237 264 301 286 278 277 278 275 267 266 252 239 234 232 232 231 230 229 227 226 228 221 219 217 222 221 211 215 220 230 237 241 243 246 248 247 251 256 262 265
299 329 292 236 252 285 206 254 310 10 310 323 355 349 348 340 319 301 286 272 257 249 241 233 231 230 229 225 225 229 223 222 225 222 213 209 213 217 227 233 239 240 243 244 245 249 253 258 260
349 324 297 257 225 257 238 191 284 50 357 354 352 348 348 346 340 329 305 293 277 265 246 234 231 229 228 225 224 223 223 223 220 215 218 210 216 217 229 229 235 238 237 239 245 249 253 253 253
357 355 331 327 205 234 37 277 268 33 22 8 349 354 352 357 353 347 334 306 294 274 255 235 230 228 226 224 221 220 223 222 223 220 216 217 215 218 224 225 232 233 233 236 241 247 251 251 254
314 29 291 299 333 302 341 224 317 19 7 4 12 356 1 2 0 355 349 333 305 280 264 240 227 225 223 221 219 218 224 221 217 218 214 218 216 221 215 223 224 226 228 233 236 239 242 251 259
311 1 317 273 260 261 228 256 194 24 14 5 359 3 359 358 357 1 355 351 334 299 268 246 230 224 221 219 217 219 222 220 218 218 212 213 214 211 212 218 219 223 224 224 227 232 238 243 254
343 279 328 309 288 277 305 300 12 16 7 356 348 350 348 356 360 7 3 356 348 327 288 256 235 226 219 217 215 218 219 222 218 218 208 206 211 209 215 214 214 216 217 220 224 228 232 240 250
349 30 347 318 344 313 346 299 40 17 358 340 340 341 341 350 359 5 12 8 357 345 318 269 242 230 225 220 218 218 219 220 216 212 208 213 207 207 208 210 211 212 214 216 217 218 221 232 248
70 45 43 0 326 293 262 248 28 17 349 347 351 344 351 358 358 358 4 5 6 355 337 292 251 235 227 223 219 218 215 215 211 210 207 203 205 205 206 205 206 207 206 206 207 211 216 228 244